Theta_e
325 319 321 325 326 325 321 323 302 310 306 298 299 302 300 312 311 309 310 312 308 315 316 316 316 316 314 306 301 300 300 301 299 300 298 304 310 308 306 308 310 312 313 314 317 317 318 323 328 330 331 332 333 333 333 333 333 332 333 333 333 335 335 335 335 335 335 336 338 338 339 339 339 340 340 340 340 340 341 340 339 339 339 340 338 339 339 340 340 339 339 340 341 340 341 340 340
314 314 319 325 325 323 314 319 306 303 303 299 300 304 304 308 308 307 307 309 311 313 316 314 312 311 308 305 304 305 299 298 300 301 302 305 309 307 305 308 310 310 311 313 315 315 316 320 327 329 330 331 331 331 332 331 331 331 332 332 332 333 334 335 335 335 335 335 337 338 337 338 339 339 340 340 340 340 341 341 341 340 338 339 338 338 339 338 339 339 339 339 340 340 340 340 340
313 312 318 325 324 320 319 318 300 300 298 295 302 304 310 304 305 309 311 311 314 316 316 313 311 309 309 311 303 303 295 299 299 301 301 304 301 301 305 308 310 310 310 311 313 313 315 319 325 327 329 330 330 330 330 330 330 330 331 332 331 333 332 334 335 334 334 335 335 336 337 338 338 339 339 339 339 339 340 340 341 340 337 337 337 338 338 338 338 338 338 339 338 338 338 338 338
319 316 318 324 317 321 310 310 303 299 297 299 301 309 310 308 309 311 314 314 315 315 313 310 304 304 309 301 303 304 299 296 297 298 300 299 298 302 305 307 310 309 309 310 310 312 314 319 323 326 327 328 328 329 329 329 329 330 329 331 330 332 331 333 334 335 333 334 335 335 335 336 337 338 339 339 339 339 339 339 339 338 337 337 338 337 338 338 338 337 337 338 337 337 337 337 338
316 319 323 321 317 311 309 306 304 303 296 301 299 307 308 310 311 311 312 314 313 313 315 309 306 302 299 296 297 300 296 300 298 298 298 301 302 304 306 308 308 308 308 309 309 311 313 320 323 325 325 327 327 327 327 328 328 329 329 329 330 331 332 332 335 335 334 334 334 334 335 334 336 338 338 338 338 339 339 339 337 336 335 336 337 337 337 337 336 336 336 336 336 336 336 338 337
315 317 323 322 313 323 313 303 302 301 304 306 303 306 311 313 311 311 311 313 316 315 314 311 308 303 295 292 294 291 294 296 298 297 297 298 301 306 306 308 307 306 307 308 309 309 312 318 321 324 324 325 326 326 326 326 327 328 328 328 329 330 331 332 333 335 336 334 334 334 334 334 335 335 336 337 338 338 338 337 336 336 335 335 336 336 335 335 336 335 335 335 336 336 336 336 336
316 319 321 320 316 317 303 301 300 302 306 307 307 307 312 312 313 312 311 312 315 313 313 304 301 300 296 293 295 294 296 297 298 296 298 299 303 305 306 305 305 305 306 306 307 309 311 317 321 322 323 324 324 325 325 325 326 327 327 328 328 330 330 330 332 335 335 336 336 335 334 334 335 335 336 337 336 336 336 336 335 334 334 335 336 336 335 335 335 334 334 334 334 335 335 335 333
322 314 321 310 308 307 300 300 301 303 304 309 309 309 311 313 313 311 309 309 307 307 308 308 307 301 298 302 293 295 296 297 297 299 299 300 302 303 305 304 304 304 305 306 307 309 312 316 318 321 322 322 323 323 324 324 325 325 326 327 327 328 329 329 330 332 332 334 333 334 334 334 334 334 333 333 333 334 333 333 333 334 333 333 334 334 334 334 333 333 333 332 333 333 334 333 332
318 316 325 309 302 308 302 300 301 308 306 309 309 312 315 314 314 312 309 310 309 309 309 308 307 301 295 294 291 295 295 297 298 299 298 299 300 303 304 303 303 303 305 305 305 307 309 313 315 319 320 321 321 322 322 323 323 323 324 324 324 325 326 328 329 329 331 330 331 331 331 332 332 332 331 331 331 331 332 332 332 332 332 331 331 332 333 332 332 332 331 332 332 331 329 328 326
313 316 307 306 306 297 299 300 298 302 305 308 308 310 313 315 313 312 310 308 304 303 302 308 307 297 297 291 292 294 294 297 298 297 298 299 300 301 303 303 303 303 303 304 305 306 309 311 312 315 318 318 319 319 320 320 320 321 321 322 323 323 324 325 326 327 328 328 328 328 329 330 330 331 331 331 331 331 330 330 331 331 330 331 330 329 331 332 330 330 330 330 330 328 326 326 326
305 315 316 302 298 296 294 296 299 302 304 307 308 312 313 314 313 311 311 305 307 302 300 304 300 297 295 292 290 296 297 297 296 294 297 298 300 300 302 303 303 303 302 303 304 305 306 306 309 312 314 315 316 315 316 316 317 318 319 320 320 321 321 322 323 324 325 325 326 326 327 327 327 327 328 328 329 329 330 330 330 330 329 329 330 329 328 330 330 329 329 329 329 328 327 327 325
303 306 307 296 292 293 295 294 299 302 304 306 304 309 313 313 313 308 306 303 300 297 295 298 299 300 294 292 291 295 296 295 295 297 298 299 298 301 303 303 303 303 302 301 302 302 303 303 303 309 311 312 312 312 312 314 314 315 316 316 317 318 318 319 320 320 321 322 322 322 323 323 323 323 324 326 326 326 326 327 329 329 329 329 330 330 329 329 329 329 328 329 328 326 327 325 324
303 306 303 298 295 295 296 297 298 302 302 303 304 309 314 308 306 310 305 302 302 298 295 295 303 304 293 292 294 296 293 294 296 296 298 298 300 301 303 302 303 302 301 301 300 300 300 301 303 305 308 309 309 309 310 310 311 311 312 312 312 313 314 315 316 317 317 318 318 318 318 317 318 319 321 322 323 323 322 323 325 327 328 328 328 329 330 329 328 328 327 327 326 327 326 326 324
304 307 304 296 301 297 296 297 297 298 299 302 302 299 300 300 299 305 298 292 291 293 294 295 297 300 293 293 293 292 291 295 295 297 298 300 300 301 301 301 302 301 300 299 297 298 299 301 302 303 303 304 304 305 306 308 308 308 309 309 308 308 309 310 311 312 313 313 313 313 312 312 314 316 317 318 319 319 318 319 321 324 326 326 327 328 329 329 329 327 328 327 328 326 325 326 324
306 311 305 301 297 297 299 295 295 296 296 300 300 300 298 297 299 297 296 291 289 294 297 296 293 296 290 294 287 289 291 293 296 299 299 299 300 300 300 300 301 300 297 297 297 297 297 298 299 299 300 301 301 301 300 302 306 305 306 306 306 306 306 306 306 307 308 308 309 308 309 309 309 310 311 313 314 314 314 314 318 321 323 324 325 326 326 327 328 328 328 327 326 326 325 325 324
308 308 307 298 294 295 297 297 298 297 296 303 300 298 295 295 296 295 294 295 290 292 293 288 292 289 289 287 288 290 292 295 296 297 298 299 299 298 298 298 299 299 296 294 294 294 295 295 296 297 297 297 299 298 298 298 302 302 303 303 304 304 303 303 302 303 303 304 304 305 305 303 304 303 308 306 309 309 310 310 314 317 320 322 322 321 323 324 325 326 326 327 326 325 324 323 322
316 312 298 298 294 295 297 297 298 294 298 299 301 302 295 291 295 294 296 295 289 288 288 289 288 291 287 288 290 292 294 296 298 297 297 296 296 294 295 295 296 296 294 292 292 293 294 294 295 295 296 296 296 296 296 297 299 300 299 301 301 301 300 300 300 300 300 301 300 300 300 298 299 300 300 302 305 304 308 308 309 312 316 318 319 318 319 321 322 323 322 326 324 321 320 319 319
312 300 296 293 295 295 297 297 298 299 297 298 301 298 294 291 293 293 295 291 290 289 287 289 290 289 290 291 292 293 294 294 294 294 293 292 293 292 291 291 292 291 290 290 290 292 292 293 293 294 295 296 295 295 296 296 296 297 295 295 296 296 298 298 295 295 297 295 299 296 295 297 297 297 297 300 299 301 302 306 306 309 311 313 315 314 314 316 319 319 319 319 320 320 319 317 316
301 299 297 293 297 297 300 300 299 298 298 301 301 300 297 293 294 295 290 289 289 287 288 288 286 288 290 290 291 291 292 291 291 291 290 290 289 289 289 289 289 289 288 289 289 290 291 292 293 293 294 295 295 294 295 295 294 294 294 294 294 296 296 294 292 293 293 294 295 295 295 295 296 296 296 299 299 300 299 303 304 305 307 308 310 310 310 312 314 315 315 316 314 313 316 317 314
302 299 294 296 301 299 300 300 298 301 301 297 295 296 296 296 297 298 291 289 290 287 286 286 285 285 287 288 290 290 290 289 290 289 288 288 288 288 288 287 287 287 288 288 288 290 291 291 292 292 293 293 293 293 294 293 293 293 293 293 293 292 292 292 291 291 292 293 293 294 294 294 294 294 298 298 298 296 296 299 300 301 302 303 305 304 306 308 310 311 312 312 310 309 310 311 313
301 298 295 297 300 298 299 299 299 299 301 295 294 294 291 291 292 296 290 287 285 285 288 286 285 285 286 288 288 289 288 288 288 288 287 287 287 287 287 287 287 287 288 288 289 289 289 290 291 292 292 292 292 292 292 292 292 292 292 292 291 291 291 290 290 290 290 291 291 293 294 294 294 294 294 294 294 294 294 294 295 295 296 298 301 299 301 302 304 304 305 306 306 306 306 307 308
299 298 300 299 300 298 299 298 298 298 299 296 295 292 290 293 289 289 293 288 284 285 286 287 287 287 286 286 287 288 287 286 286 286 286 286 286 286 287 287 288 288 289 287 287 288 289 290 290 291 292 292 292 291 291 292 291 290 290 291 290 290 291 290 290 289 289 289 290 291 291 290 291 292 293 293 294 293 293 293 292 293 296 297 297 297 298 300 301 302 303 303 303 305 305 305 305
293 296 297 298 300 297 300 298 296 297 298 296 292 292 292 288 286 287 285 284 284 288 288 287 287 288 288 288 287 286 286 286 286 286 286 286 286 286 287 287 287 286 287 287 287 288 289 289 289 290 290 291 291 291 290 290 290 290 290 291 290 289 290 289 289 289 289 289 290 290 289 289 289 289 289 291 293 294 293 292 292 293 295 295 296 295 296 297 299 300 300 301 302 302 303 303 303
296 292 295 299 299 296 299 297 298 295 295 292 293 294 289 289 284 286 283 285 286 287 288 287 288 288 288 286 286 285 285 285 285 286 286 286 286 286 287 286 287 287 286 287 287 287 288 288 289 289 289 290 289 290 290 289 289 290 290 291 290 292 290 289 288 289 289 289 290 289 290 288 288 288 288 289 290 292 293 293 293 293 292 293 295 295 295 295 296 298 298 298 300 301 301 302 301
294 293 295 298 298 297 297 295 294 294 294 294 293 290 288 288 285 285 282 285 286 286 287 287 287 287 287 286 285 285 285 285 285 286 286 286 287 288 287 287 287 287 286 286 286 286 287 288 288 288 288 289 289 289 289 289 289 289 289 289 289 293 288 288 288 288 288 289 290 289 289 288 288 288 288 289 289 289 290 291 292 292 292 293 295 294 295 294 295 296 296 297 299 299 300 301 301
294 293 295 298 297 296 296 295 294 293 293 292 288 286 286 286 287 282 284 285 286 287 286 286 286 285 285 285 286 285 285 285 286 286 286 287 287 286 286 286 286 285 286 286 286 286 287 287 287 287 288 288 288 289 288 288 288 288 288 288 288 290 288 288 288 287 287 287 288 289 289 288 287 287 287 288 288 287 288 287 288 288 289 292 295 294 295 294 294 295 295 295 297 297 299 300 300
295 295 295 296 296 295 296 294 293 293 293 292 287 286 286 288 289 280 285 285 286 286 285 286 285 284 285 285 285 285 285 285 285 286 286 287 286 285 285 286 285 285 286 285 285 285 287 286 286 287 287 289 287 287 288 287 288 287 288 288 288 287 288 288 287 287 287 287 287 288 288 288 287 287 287 287 287 287 286 286 287 287 286 288 292 294 295 294 294 294 294 294 295 296 297 299 299
295 294 294 295 294 295 295 295 293 293 291 293 290 287 288 289 288 282 283 286 286 284 284 285 284 284 284 285 285 285 285 286 286 286 285 285 285 285 285 284 285 285 285 285 285 286 286 286 286 287 287 288 287 287 288 287 287 287 287 287 287 287 288 286 286 286 287 287 287 287 288 287 288 286 286 287 287 286 286 286 286 286 286 287 289 290 291 293 293 293 293 294 294 295 295 296 298
294 294 289 291 292 291 293 292 292 293 290 292 291 287 285 286 281 283 285 286 286 284 284 284 284 284 284 284 284 284 284 285 285 285 285 285 285 285 285 286 285 285 285 286 286 286 285 285 286 286 286 286 286 286 286 286 286 287 286 286 287 289 286 286 285 286 286 286 287 287 287 287 287 286 286 286 287 285 285 285 285 286 285 286 287 288 289 290 291 290 291 293 293 293 293 294 296
294 292 290 289 289 288 292 294 293 293 291 292 292 281 282 280 282 284 285 285 285 284 283 284 283 283 284 284 284 284 285 285 284 284 284 285 285 285 285 285 286 285 285 285 286 285 287 289 288 288 286 286 287 286 286 285 286 286 286 286 287 286 285 284 286 285 285 285 285 286 286 287 286 286 286 285 285 285 284 284 284 284 284 285 286 286 286 286 287 287 287 289 290 291 291 293 294
288 291 291 284 284 284 291 292 292 290 292 292 293 281 279 281 282 284 285 286 284 283 283 283 283 283 283 283 283 283 284 284 285 285 285 286 285 285 285 285 286 286 286 285 285 285 286 286 288 286 286 285 286 285 286 285 286 286 285 285 285 286 285 284 284 285 284 284 285 284 286 286 285 286 286 285 284 284 283 283 283 283 285 285 285 285 285 285 285 285 285 285 286 288 289 291 292
290 288 283 286 283 287 290 292 291 288 290 292 291 280 282 280 282 284 285 285 285 283 283 283 283 283 283 283 283 283 283 284 285 285 286 286 286 285 285 285 285 285 285 285 286 286 286 286 287 285 285 285 286 287 286 286 286 286 286 288 286 286 285 284 284 284 284 283 284 284 284 285 284 285 285 284 283 283 282 283 283 284 284 284 284 284 284 283 284 284 284 284 283 284 286 287 289
288 285 284 283 283 285 286 290 292 292 289 291 289 282 279 280 282 284 285 285 285 283 282 283 283 283 283 283 283 282 282 283 284 284 285 285 286 285 285 285 285 285 285 286 285 285 285 285 286 285 285 285 286 286 286 286 286 285 285 286 286 286 285 284 284 284 284 283 283 283 284 285 284 284 284 284 283 283 282 283 282 283 284 283 283 283 282 283 282 284 282 284 283 283 284 284 285
283 286 282 286 283 285 282 289 290 291 289 285 288 285 282 282 282 283 285 285 285 283 282 282 283 282 282 282 282 282 282 282 282 283 285 285 285 286 286 287 286 286 286 286 286 285 285 286 286 286 286 286 286 286 286 286 286 286 285 285 287 285 285 284 284 284 283 283 283 283 285 284 285 284 283 284 282 284 283 282 282 283 283 282 281 282 282 282 282 282 281 282 283 282 282 282 283
281 282 282 284 286 287 285 282 288 289 290 286 286 282 279 280 282 282 284 285 284 283 282 282 282 282 282 282 282 282 282 282 283 284 285 286 285 286 285 286 286 286 286 286 286 285 285 285 286 286 285 285 285 286 286 286 286 285 285 285 284 284 284 284 284 284 284 283 283 284 284 283 283 284 284 284 282 281 281 281 282 282 282 281 281 281 281 281 281 281 280 280 282 282 282 282 283
287 289 286 286 283 283 284 287 289 289 286 286 285 280 279 279 280 282 283 284 284 283 283 282 282 282 282 282 282 282 282 283 284 285 285 285 285 286 285 286 286 286 286 285 287 287 285 285 285 286 285 285 286 285 286 284 284 284 283 284 283 283 283 284 283 283 284 284 283 284 283 283 284 283 283 282 282 281 281 281 281 282 281 280 280 279 279 279 279 279 279 280 279 280 281 282 282
289 289 288 285 286 284 287 287 289 291 288 286 286 282 280 280 280 282 283 283 283 283 282 282 282 282 282 281 282 282 282 283 285 285 285 286 287 286 286 285 285 285 286 286 286 285 285 285 285 284 285 285 284 283 283 283 282 282 283 283 282 283 284 284 284 283 283 283 284 283 283 282 283 283 283 283 281 282 281 280 280 280 280 280 279 279 280 280 280 279 279 279 279 278 278 280 281
289 286 286 284 287 283 287 287 289 294 288 282 283 282 280 280 281 282 283 283 282 282 282 281 282 282 282 282 282 282 283 285 285 284 285 286 284 286 286 285 286 284 285 285 285 286 286 286 285 285 285 285 285 284 284 283 283 283 282 282 282 282 282 282 282 283 284 285 282 282 282 282 282 282 282 282 282 281 280 279 279 279 279 279 279 280 280 281 279 278 278 276 278 278 277 279 280
289 284 283 282 284 285 287 288 290 290 289 283 284 281 280 281 282 282 282 282 283 284 283 283 282 282 282 282 282 282 282 283 283 283 284 284 285 285 285 285 285 285 285 285 286 286 285 285 286 285 286 286 286 285 284 283 283 284 283 283 283 282 284 284 284 284 284 283 282 282 282 282 282 281 282 282 281 281 280 279 279 279 279 280 278 278 278 277 278 277 277 276 275 276 277 279 278
285 284 282 281 285 282 279 286 288 289 286 283 283 280 279 282 283 282 283 283 284 286 285 285 284 282 282 282 282 282 282 282 282 282 283 284 284 284 284 285 285 285 284 285 285 285 285 285 286 286 286 286 286 285 285 285 284 285 284 284 284 284 283 285 284 284 284 283 281 283 282 281 282 281 281 281 281 280 280 279 279 278 278 279 278 277 276 277 277 276 276 277 276 273 275 275 278
286 287 284 282 284 285 285 282 286 288 288 289 284 280 278 279 278 279 282 284 284 285 284 284 284 284 284 284 284 284 282 283 282 282 283 283 284 284 285 285 285 285 285 285 285 285 286 285 286 286 286 286 286 285 284 284 284 283 283 283 283 282 282 281 281 282 282 282 283 282 283 282 281 281 281 281 281 279 280 279 279 278 278 278 278 277 276 276 277 277 276 275 275 274 273 274 275
283 288 289 287 287 286 285 285 283 280 279 285 283 275 276 278 279 279 281 281 281 282 281 282 283 283 283 282 282 283 284 284 283 283 283 284 284 285 285 285 285 284 285 286 285 286 286 286 285 286 286 285 284 284 284 283 282 281 281 280 278 279 277 278 277 278 279 280 280 282 282 283 283 281 280 281 281 281 279 279 279 278 278 279 279 277 276 276 276 276 276 275 274 275 274 273 272
281 282 285 288 287 286 284 283 281 275 274 281 286 275 273 276 278 279 280 279 280 282 281 282 283 283 282 282 282 283 283 283 284 284 284 284 284 284 285 285 285 285 286 287 286 286 286 285 285 285 284 284 285 283 283 283 281 281 280 279 279 278 277 279 279 280 280 280 281 281 281 282 282 282 281 280 279 280 279 278 278 278 278 277 279 277 275 276 276 276 277 275 274 277 274 271 272
278 285 287 287 286 284 284 283 281 278 283 285 284 280 274 273 278 280 280 279 279 280 281 282 282 283 283 283 283 283 284 284 284 284 284 284 284 284 284 285 285 285 286 286 285 285 284 284 284 284 283 283 283 282 282 282 280 280 279 279 280 278 277 278 279 279 280 281 280 280 280 280 281 281 281 281 280 280 279 278 278 278 277 277 278 277 276 276 277 277 277 276 275 275 274 271 271
283 286 288 286 286 287 286 282 280 281 279 275 278 283 273 273 276 280 280 277 278 279 280 281 283 283 283 284 285 285 285 285 285 284 284 284 284 284 285 284 285 286 286 284 284 284 284 284 283 283 283 282 282 281 281 281 280 280 278 277 276 278 278 278 278 279 278 279 278 279 279 279 280 280 281 280 280 279 280 278 278 277 276 276 279 277 276 277 276 275 274 274 274 274 274 274 273
287 288 288 287 287 285 286 280 279 279 276 273 277 281 273 273 275 277 279 277 278 279 281 283 283 284 284 284 285 286 286 285 285 285 285 285 285 285 285 285 286 285 285 286 284 283 283 283 282 283 282 281 281 280 280 280 280 279 277 276 275 276 276 276 276 276 276 276 276 277 277 277 277 278 279 280 280 278 278 279 278 277 276 276 278 275 275 276 275 275 275 275 275 274 273 273 273
289 288 286 284 282 281 281 280 279 277 272 275 279 280 277 271 275 277 276 277 280 281 281 283 284 284 285 286 286 286 286 286 285 285 285 285 286 286 286 285 285 284 283 283 283 282 282 282 282 281 281 281 281 280 280 279 279 278 277 276 275 275 275 275 275 275 275 275 275 276 276 276 277 277 277 278 278 278 277 279 277 276 277 277 276 275 275 275 275 275 275 275 274 274 272 272 274
287 282 281 280 278 280 278 277 279 272 270 275 276 277 280 270 274 276 280 280 282 281 280 282 282 283 284 285 285 286 286 286 286 285 286 286 286 285 284 284 284 283 282 282 282 282 282 281 280 280 280 280 280 280 280 278 278 277 276 275 275 274 274 275 274 274 275 274 274 274 275 275 276 276 277 276 277 278 278 277 278 278 278 278 277 275 275 275 275 276 275 275 274 274 274 272 271
283 280 280 274 273 273 270 273 269 270 270 274 276 279 274 274 277 279 280 281 282 283 283 283 283 284 284 285 285 285 286 286 285 285 285 286 284 284 283 283 283 281 281 281 281 281 281 280 280 278 278 279 279 279 278 278 277 276 275 275 274 275 275 274 274 274 274 274 274 274 274 274 274 275 275 276 276 277 277 277 277 277 277 278 278 276 276 275 275 274 275 275 275 274 273 273 272
281 278 276 273 269 269 267 270 272 272 274 276 275 278 272 276 276 280 280 282 283 283 284 284 284 284 284 285 285 285 285 285 285 285 284 284 284 283 284 283 282 281 281 281 280 280 280 280 279 278 277 278 278 278 278 277 276 276 275 275 274 274 274 275 274 274 274 274 275 274 274 274 274 274 275 275 276 276 276 276 277 276 276 277 277 276 277 277 276 275 274 275 275 275 274 274 273
279 284 279 275 273 270 267 271 269 271 272 273 277 271 270 271 274 279 281 282 282 282 283 283 283 283 283 283 284 284 284 283 283 283 283 284 284 284 283 283 282 281 281 280 279 279 278 278 278 278 277 278 278 277 277 276 275 275 274 275 275 274 275 274 274 275 274 274 274 274 274 274 273 274 274 275 276 275 276 276 276 276 276 276 277 276 277 277 277 276 275 275 276 275 275 274 273
281 281 280 274 273 277 271 273 271 272 272 271 271 270 274 274 279 280 281 281 281 280 281 281 280 280 280 281 282 282 282 283 283 282 283 284 284 283 282 281 281 280 280 279 279 278 278 278 278 277 277 277 277 277 276 276 275 274 274 274 274 275 275 274 274 274 273 274 273 273 273 273 274 274 274 274 275 275 275 275 275 275 276 276 276 276 276 276 277 277 276 275 275 277 275 274 273
278 277 274 276 279 278 274 274 275 274 271 269 275 273 275 277 277 278 279 278 279 279 279 278 279 279 279 279 280 281 281 281 282 282 282 283 282 282 282 281 280 280 279 279 279 279 278 278 277 277 277 277 277 276 276 275 274 274 273 273 274 274 273 272 272 273 273 273 273 273 272 273 274 274 274 274 274 274 275 275 275 276 276 275 275 275 276 276 277 277 276 276 275 276 275 274 274
279 275 278 282 281 281 276 269 272 270 267 270 274 271 269 270 268 278 277 277 278 278 278 279 279 279 279 280 281 281 281 282 283 283 283 282 282 282 282 281 280 280 279 279 279 278 278 278 277 276 276 276 276 275 275 274 273 273 273 273 273 273 273 273 272 272 273 272 272 271 272 272 272 273 273 274 274 273 274 275 275 276 276 276 276 275 275 275 276 276 276 275 275 275 275 276 275
280 277 283 277 273 273 276 271 265 266 265 267 272 273 271 272 271 274 275 276 277 277 278 278 278 279 279 280 281 281 281 281 281 281 281 281 281 281 281 280 280 280 280 279 278 278 278 277 277 276 275 275 275 275 274 274 273 274 275 273 273 273 273 273 273 273 272 272 271 271 271 271 272 272 272 272 273 273 273 274 274 275 275 276 276 276 276 275 275 275 275 275 274 274 274 274 275
285 283 279 281 275 273 272 273 270 271 266 266 266 269 268 276 276 275 276 278 278 277 278 278 279 279 279 280 281 280 280 280 280 280 281 281 281 282 281 280 279 279 278 278 278 278 277 277 276 276 276 275 275 274 273 272 272 273 273 273 273 273 273 273 272 272 272 271 271 271 271 271 271 271 272 272 272 272 272 272 273 273 274 274 275 276 276 276 275 274 274 274 274 274 274 274 274
275 277 276 276 277 278 275 274 271 270 267 267 266 266 270 276 278 277 278 278 279 278 278 279 279 280 280 280 280 280 280 280 280 280 280 281 281 281 281 280 279 279 278 278 278 277 277 277 276 275 274 274 274 273 273 273 272 272 272 272 272 272 272 272 272 272 271 271 271 271 271 271 271 271 271 271 271 271 271 271 271 272 272 273 273 274 275 275 276 275 275 274 274 274 274 273 273
277 276 275 276 274 272 268 268 273 270 270 266 267 266 272 277 281 280 279 280 280 280 279 279 279 280 280 280 279 280 280 280 280 280 280 280 280 280 280 280 279 278 278 277 278 277 276 276 275 275 274 274 273 273 273 272 272 272 272 272 272 272 272 272 271 271 271 271 271 271 271 271 270 271 270 270 270 271 270 270 270 271 271 271 272 273 274 274 274 274 275 275 275 274 273 272 272
Wind_Speed
10 9 8 7 6 6 5 3 4 3 3 8 7 8 2 6 8 8 9 7 6 5 8 10 12 9 6 8 15 13 11 9 4 1 3 2 2 4 10 12 11 8 8 8 10 10 12 18 21 20 20 20 21 21 22 22 22 21 21 21 21 21 22 21 21 20 19 18 18 17 16 15 14 13 13 13 13 13 12 12 13 13 13 11 10 10 9 10 10 11 10 12 12 12 12 10 12
9 9 10 7 5 3 4 4 3 4 4 6 8 5 4 4 4 6 7 6 6 5 8 12 15 17 21 20 18 13 13 10 7 5 3 4 4 3 11 12 10 10 9 6 9 10 11 15 22 20 20 21 22 23 23 22 22 22 22 23 23 22 22 21 21 20 19 19 18 18 16 16 15 15 14 13 12 13 13 12 11 9 10 8 7 6 7 8 7 10 11 11 12 12 12 12 12
8 8 8 7 5 5 5 2 6 4 6 7 2 4 3 5 3 10 13 13 12 13 12 11 12 9 10 7 11 8 3 5 8 7 5 8 5 8 11 10 9 9 9 6 9 10 10 14 19 20 21 21 22 22 22 23 23 23 23 23 23 23 23 23 22 22 19 17 16 16 16 15 15 15 15 15 14 14 14 13 11 9 6 5 6 7 7 8 8 8 8 10 11 12 13 12 11
7 7 6 4 3 3 3 3 5 6 6 4 0 1 2 4 11 15 10 10 11 10 8 7 7 9 4 14 9 15 9 4 7 5 3 6 4 8 9 9 8 8 7 7 9 10 10 14 18 19 21 21 22 22 23 24 24 24 24 24 24 24 23 23 22 21 19 16 15 14 13 14 14 15 15 15 15 15 15 15 11 8 3 6 7 8 10 11 11 10 9 10 11 11 12 14 16
7 5 6 4 3 2 3 4 5 4 8 2 1 2 5 13 11 12 10 7 7 6 5 6 6 6 12 9 6 2 3 2 8 8 3 3 6 6 7 8 7 8 8 9 9 10 11 19 19 20 20 21 21 21 22 23 23 24 24 24 24 24 24 24 24 23 19 17 14 14 13 13 14 14 14 15 15 15 15 14 8 3 2 5 8 9 10 10 11 10 9 9 9 9 12 15 16
8 7 6 4 3 2 2 4 5 7 6 3 2 2 10 9 12 11 12 8 5 6 6 6 6 5 7 6 6 3 6 3 3 5 4 3 7 6 9 7 8 9 8 8 8 8 11 18 18 19 19 20 21 21 22 22 23 24 24 24 24 25 24 25 27 27 25 18 15 14 13 12 12 13 13 14 14 12 9 9 10 9 9 9 9 10 8 9 10 11 11 11 11 11 12 14 15
3 6 3 3 4 3 4 5 7 6 3 8 2 7 9 10 10 11 12 11 6 10 8 7 14 14 9 4 9 7 7 5 2 3 5 5 6 6 8 7 7 9 9 7 7 8 12 19 20 20 19 20 21 22 22 22 22 23 24 23 24 24 24 25 26 27 30 29 22 16 14 13 12 11 12 15 13 13 13 12 11 10 11 13 15 13 10 11 12 12 12 11 11 13 14 14 13
3 4 1 4 3 3 5 6 7 6 2 4 7 5 8 11 10 9 10 9 6 6 7 8 9 13 9 3 5 4 7 7 6 5 4 5 7 7 9 8 7 8 8 7 6 6 11 20 21 20 20 21 22 23 23 23 23 24 24 24 24 24 24 26 28 27 29 30 32 32 30 28 24 21 23 23 23 21 18 17 18 17 17 17 16 14 11 11 12 11 10 10 11 12 13 13 12
3 4 1 3 4 2 5 7 7 3 5 4 8 8 11 9 8 8 8 9 10 10 7 12 11 6 5 12 8 5 4 5 5 5 6 7 8 8 7 9 8 8 9 8 7 6 8 16 19 20 20 21 22 24 24 24 24 25 25 25 25 25 25 25 26 27 27 28 30 30 30 29 28 27 25 23 22 23 22 22 19 19 17 15 15 14 12 12 11 11 10 9 10 11 11 10 10
3 2 1 2 2 5 5 6 8 1 7 5 7 6 5 5 6 6 6 10 11 12 13 13 12 13 12 12 7 3 3 2 4 6 6 6 7 7 9 9 10 10 9 8 8 7 7 13 19 19 20 20 22 23 23 24 24 25 25 25 26 26 26 26 26 27 26 27 27 27 28 28 28 28 27 26 25 23 23 21 20 19 18 16 15 13 12 10 9 8 8 7 8 9 10 11 11
3 3 1 2 3 5 5 5 5 4 9 7 7 6 4 3 5 6 5 11 8 8 7 5 14 13 10 8 4 2 4 5 5 5 5 5 6 8 7 10 10 10 9 10 9 9 8 9 16 19 19 19 21 23 23 22 24 24 25 26 27 28 27 26 27 26 26 27 27 27 28 29 28 28 30 28 27 26 26 24 21 19 18 17 15 13 9 8 7 6 6 5 6 8 10 9 8
3 4 3 3 4 5 6 5 3 7 9 6 7 5 2 5 5 9 10 9 8 11 8 9 6 12 11 7 4 5 7 6 5 3 3 4 3 2 6 7 10 10 10 10 10 10 9 9 9 13 19 18 20 21 22 23 24 24 25 26 27 28 28 29 29 27 27 27 27 26 27 27 27 27 27 27 27 28 27 26 25 22 20 18 17 17 14 9 6 5 3 2 5 9 9 7 9
3 3 3 4 5 5 7 6 3 4 4 6 10 5 1 7 3 10 11 11 8 8 7 11 4 6 6 6 6 7 8 6 4 3 3 2 1 3 7 8 8 9 10 11 11 11 10 9 9 9 12 17 16 18 20 21 23 24 25 26 26 27 27 28 27 28 29 28 27 27 27 27 27 27 27 28 28 29 28 27 26 26 25 24 23 22 20 16 12 8 6 3 5 7 7 6 6
4 2 2 5 3 6 6 5 7 2 1 10 8 11 11 7 9 7 12 12 12 8 5 10 8 16 12 9 7 4 5 4 3 1 2 2 3 6 8 8 10 11 10 10 10 10 10 9 9 9 10 10 10 12 17 20 21 22 23 24 25 27 27 27 27 27 27 26 26 26 26 26 27 27 26 27 27 27 27 25 26 26 26 24 25 24 22 19 15 10 8 8 9 5 4 5 5
4 3 2 3 5 6 3 3 4 4 5 7 7 7 9 10 8 12 11 14 10 6 4 12 8 5 3 6 4 4 3 3 1 2 4 4 8 7 8 8 9 10 10 10 10 10 10 9 10 9 9 9 9 9 9 13 19 20 22 22 22 25 27 28 26 25 25 25 25 25 23 24 23 26 25 25 26 27 26 24 26 26 26 26 25 25 25 26 23 16 12 11 6 4 4 4 4
3 2 2 3 5 5 4 6 6 3 5 6 8 14 17 13 12 8 9 7 8 11 12 7 13 6 8 12 8 5 3 2 1 4 4 8 8 7 7 8 7 8 9 9 8 9 9 10 8 8 10 10 9 9 10 10 15 20 21 21 21 23 25 24 24 24 22 23 23 23 23 19 20 20 26 20 24 25 26 24 26 25 26 26 25 25 24 26 26 27 21 13 5 6 5 5 5
1 2 2 3 6 6 4 5 5 1 9 7 9 6 8 9 11 14 12 12 17 10 15 11 10 9 12 9 7 5 3 2 3 5 6 6 6 6 5 5 5 6 7 8 8 8 9 9 9 7 10 11 10 9 8 9 12 18 15 20 22 23 23 22 22 22 20 20 21 21 19 15 15 15 17 15 20 18 24 25 25 26 27 26 25 25 25 25 26 27 28 18 9 8 7 7 6
1 3 3 4 5 7 6 10 7 11 10 9 8 11 14 11 9 10 12 16 15 13 14 11 13 13 10 8 7 7 6 7 6 7 6 6 5 5 6 5 5 6 5 6 7 7 6 8 8 8 7 9 9 8 7 8 8 12 12 11 12 14 17 16 15 14 14 13 18 16 14 13 12 13 14 15 14 17 18 25 24 24 25 25 25 23 24 24 24 26 25 27 19 12 10 5 3
3 2 3 5 4 3 5 5 7 5 9 9 8 11 11 11 10 7 9 11 11 13 11 10 13 11 10 9 8 8 8 9 9 9 9 9 7 8 6 5 6 5 6 5 6 7 5 6 8 8 8 7 8 9 7 8 10 8 10 11 10 13 12 13 12 14 13 13 12 12 12 11 12 11 12 13 12 19 19 23 22 22 22 24 24 22 21 23 24 24 25 24 23 24 12 7 5
4 3 4 4 3 4 6 6 5 6 8 11 13 11 12 9 6 9 12 11 11 10 8 8 10 10 9 9 9 9 9 10 9 9 10 9 8 8 7 7 6 5 5 5 5 6 8 7 7 8 8 8 8 7 7 7 8 9 9 10 10 9 10 10 12 13 13 13 12 10 9 10 11 10 13 17 14 12 13 17 22 22 21 20 24 15 19 19 21 21 22 21 15 10 10 10 9
1 5 4 5 7 7 7 8 4 3 7 11 11 9 12 11 9 5 13 13 10 8 9 9 10 10 10 9 9 8 9 9 9 8 10 10 9 8 7 7 5 6 5 4 5 8 8 8 6 7 8 7 7 7 7 7 7 8 8 8 8 9 9 10 10 12 13 13 12 9 9 9 9 9 10 10 11 11 12 11 12 13 12 13 17 12 12 12 13 12 11 12 10 10 10 10 10
3 3 6 7 5 5 9 8 6 3 6 12 10 8 8 5 14 12 1 9 5 6 8 9 10 10 10 10 9 8 9 10 10 9 9 9 9 8 8 6 7 5 4 6 7 7 8 8 8 6 7 7 7 6 7 7 7 7 7 7 7 8 8 10 10 10 11 12 11 10 10 10 10 9 9 9 10 10 11 11 11 11 10 11 12 11 11 11 11 10 10 10 9 9 9 9 9
2 3 7 7 2 1 4 6 4 3 7 10 9 8 7 8 11 10 16 11 8 8 8 8 8 9 9 9 9 10 9 10 10 9 9 9 9 8 8 6 6 5 4 6 5 6 7 7 7 7 7 6 9 7 6 7 7 6 6 6 6 7 6 8 9 9 10 11 11 11 11 11 11 11 11 10 10 8 8 9 9 10 8 9 10 10 11 10 10 9 10 9 8 9 9 9 9
2 4 5 6 5 6 5 5 4 8 10 11 10 9 10 9 10 8 15 9 9 8 8 8 8 8 8 10 9 9 9 9 9 9 9 9 9 8 7 7 6 4 5 5 6 6 6 8 7 6 7 7 6 7 7 7 6 7 7 6 7 7 7 7 6 7 7 9 9 9 10 9 10 11 11 11 11 9 9 8 8 9 9 9 8 8 10 9 9 9 9 9 10 9 9 9 8
2 4 4 3 4 4 5 4 9 11 10 10 11 11 8 10 10 9 10 9 8 8 7 7 8 9 9 10 10 9 10 9 10 8 8 7 8 8 7 6 5 5 6 6 5 6 6 6 7 7 6 7 6 6 6 6 6 6 6 7 7 7 7 7 6 6 8 7 7 8 8 8 9 10 11 10 9 10 10 9 8 8 8 8 7 8 9 9 9 9 9 9 8 9 8 8 8
4 6 3 4 3 5 5 7 7 9 8 10 15 12 13 16 17 13 8 7 8 7 7 8 8 9 9 9 9 8 9 9 8 8 8 7 7 8 7 5 5 6 6 5 4 4 5 6 7 8 7 6 6 6 6 6 6 7 7 7 6 7 7 7 6 6 6 8 8 8 8 7 7 7 7 7 8 9 8 9 9 10 9 8 6 7 7 7 8 8 9 9 9 9 8 8 8
3 2 3 4 5 5 5 8 8 6 8 9 11 10 10 9 3 3 3 7 7 9 9 8 8 9 9 8 8 8 9 9 9 7 8 5 6 7 6 6 6 6 5 6 4 4 4 5 6 7 7 5 4 6 6 6 6 7 7 6 5 6 6 6 6 6 5 6 8 8 8 8 7 7 7 6 5 6 6 7 7 8 9 9 8 6 4 5 5 7 8 8 8 8 8 7 7
2 2 1 1 5 4 4 7 9 8 6 9 15 11 8 5 4 5 9 8 8 9 10 9 8 8 8 8 7 6 7 7 6 6 8 6 3 3 5 4 5 4 5 4 4 3 4 5 5 6 6 5 4 4 4 5 6 5 5 6 5 6 5 5 6 6 6 6 7 8 7 7 7 7 8 7 6 6 6 6 6 7 8 8 8 8 8 5 4 5 6 7 7 7 7 7 6
2 2 4 6 6 6 8 9 9 8 6 11 13 11 5 4 6 10 10 9 9 10 10 10 9 8 8 7 6 4 5 5 5 5 6 4 4 3 4 4 4 4 3 4 4 4 3 3 3 4 4 4 5 4 4 4 4 5 5 5 5 4 5 5 6 6 6 6 5 7 7 7 6 7 7 8 6 6 6 6 6 6 7 7 6 7 8 7 6 7 7 6 6 7 7 8 7
3 5 5 6 7 8 11 7 9 8 7 13 9 2 4 6 9 9 9 9 10 10 9 8 7 7 6 6 5 5 5 5 4 4 4 4 4 4 4 4 4 3 3 3 4 4 2 2 2 2 3 4 4 4 4 3 3 3 3 4 4 5 5 6 5 5 5 5 5 6 6 5 6 6 5 7 6 6 6 5 6 6 6 7 6 6 7 6 6 9 9 9 8 8 8 8 7
2 6 5 5 4 6 12 10 11 9 8 12 7 4 3 6 7 8 8 10 11 9 9 8 8 7 6 5 5 5 6 4 5 5 6 5 5 3 4 3 4 3 2 3 4 4 4 3 3 2 3 4 4 3 3 3 2 2 3 3 3 4 4 4 4 4 4 5 6 5 5 4 5 5 6 6 6 6 6 5 5 5 6 6 6 6 6 6 6 7 8 9 9 9 8 7 7
4 2 4 4 6 1 10 7 12 10 6 10 5 5 3 9 9 9 8 9 10 9 8 8 7 6 7 6 6 5 5 5 5 6 5 5 4 3 3 3 3 2 3 3 3 3 4 4 4 3 3 3 4 3 1 1 1 1 2 2 1 2 3 3 4 3 3 4 4 4 4 4 4 5 5 5 5 6 6 5 5 5 5 6 6 6 5 6 6 6 6 8 9 9 9 9 8
5 6 2 6 7 4 6 8 8 9 9 8 10 3 7 5 9 8 9 10 10 8 8 8 8 8 8 6 6 5 6 5 4 5 5 4 4 3 3 3 2 3 2 2 2 2 3 3 3 3 3 3 2 4 4 4 4 4 2 1 1 2 2 2 3 2 2 3 2 3 3 4 3 4 4 5 4 5 6 6 5 4 5 6 6 6 5 5 6 6 6 7 7 8 8 10 9
5 5 7 5 6 7 3 7 9 7 11 7 9 1 3 9 11 9 7 8 9 7 8 8 7 6 6 6 6 7 6 6 5 5 6 5 3 4 4 3 3 3 2 1 1 1 2 2 2 2 1 2 2 3 4 4 5 6 5 4 4 3 2 2 1 1 2 2 2 2 2 3 2 3 4 4 4 4 5 5 4 5 5 6 6 6 5 5 5 6 6 6 7 7 7 9 8
3 6 5 6 9 10 8 8 8 7 6 6 7 7 8 10 9 8 8 8 7 8 7 7 7 7 6 6 6 7 7 6 6 4 5 5 4 4 3 3 2 1 1 1 1 2 1 1 1 2 2 3 4 4 4 3 3 4 4 5 4 4 3 2 2 0 0 1 2 1 0 2 1 2 2 3 4 4 5 5 5 4 4 5 5 6 5 4 5 6 6 7 6 6 7 8 6
4 2 3 4 4 4 6 4 9 10 7 4 9 7 10 10 9 8 7 6 6 7 7 6 7 6 6 6 6 7 6 6 6 6 5 5 4 4 3 3 3 1 2 2 1 0 1 1 1 1 2 2 3 4 5 5 3 3 5 5 4 4 4 4 3 3 1 0 1 0 1 3 0 1 1 2 3 4 4 4 5 4 4 4 5 6 5 5 5 6 6 7 7 6 7 6 7
4 4 4 4 1 5 7 6 5 6 4 4 3 11 10 10 10 9 8 6 5 8 8 7 6 7 6 6 6 6 7 6 6 7 5 5 4 4 3 3 3 3 2 2 0 2 2 1 1 1 3 3 3 4 4 3 3 4 3 4 4 4 5 4 4 4 3 2 0 1 2 4 1 2 1 1 2 3 3 4 4 4 4 4 4 5 5 4 4 4 5 5 7 7 6 6 7
3 3 4 5 4 2 4 6 3 0 2 5 11 9 8 9 9 9 8 7 8 9 9 8 8 6 6 7 7 6 6 6 7 6 6 5 4 4 3 3 3 3 4 4 3 1 1 1 0 1 2 1 2 3 3 3 3 3 3 3 3 4 4 4 4 3 5 1 3 3 3 3 2 2 1 1 2 2 3 3 4 4 4 4 3 4 4 4 4 4 4 5 4 6 5 7 8
3 2 3 4 1 6 4 3 3 4 0 5 8 8 7 8 9 9 9 9 6 6 8 8 8 8 7 7 7 7 6 7 7 6 6 5 5 5 4 4 4 4 3 3 4 1 3 1 1 2 1 1 1 3 3 2 3 3 4 3 4 4 4 5 6 6 5 4 3 4 3 3 3 3 2 0 1 2 2 3 4 4 4 3 3 4 4 4 3 4 4 5 6 4 3 5 7
3 3 3 4 4 4 2 2 3 3 1 2 6 7 5 6 6 8 8 8 6 7 8 7 7 8 7 7 7 7 7 8 8 8 8 7 6 5 5 4 4 4 3 4 4 5 3 1 1 2 0 1 1 2 2 2 2 4 4 4 5 5 6 5 4 5 5 5 3 5 6 6 2 2 3 2 2 3 1 2 3 4 4 3 3 4 4 3 3 3 4 4 4 5 4 4 6
4 5 3 1 2 2 2 5 3 1 1 1 5 5 3 5 7 6 7 7 6 6 5 5 5 6 6 5 6 7 8 8 8 8 8 8 8 8 7 5 4 4 4 4 3 2 1 2 1 2 1 1 1 3 3 3 3 3 3 4 4 4 3 4 5 5 5 5 6 5 6 3 5 4 4 4 4 3 3 1 2 3 4 4 3 2 3 2 3 2 3 3 4 4 5 3 4
3 6 2 1 1 4 6 6 6 2 3 3 6 1 5 8 8 8 7 5 5 4 4 4 4 3 4 5 6 6 6 6 8 9 9 9 8 7 8 7 5 4 4 5 4 2 4 2 3 2 1 1 2 3 4 3 3 3 4 5 6 4 4 5 5 7 6 6 6 6 7 7 5 4 5 5 5 4 4 3 2 3 4 4 3 3 3 2 3 2 3 1 4 4 3 3 3
3 2 6 3 2 6 6 6 3 3 3 7 8 6 1 3 7 9 8 7 7 6 6 7 6 6 4 4 5 6 6 6 7 7 8 8 8 8 7 7 6 5 5 2 4 4 3 2 3 1 1 2 1 4 3 2 3 3 4 4 4 4 5 4 5 6 6 7 6 8 6 7 6 6 5 4 4 5 4 3 3 3 3 3 3 3 3 2 1 1 1 2 3 3 4 1 4
2 2 3 2 0 3 5 5 5 3 3 1 8 4 3 2 7 8 9 8 8 8 9 8 7 7 6 6 5 4 6 6 5 6 6 7 8 8 7 6 6 4 4 3 4 4 3 3 2 1 1 1 3 3 3 3 3 3 4 4 3 4 4 6 7 7 7 7 7 7 6 6 7 8 7 7 4 5 4 4 4 3 3 4 3 3 4 2 1 2 2 2 2 2 4 2 1
1 0 4 3 0 2 1 3 4 4 4 2 5 4 1 1 3 7 9 8 8 9 10 9 8 8 8 8 7 7 7 7 7 6 6 6 7 7 5 5 4 7 4 4 3 4 3 4 2 1 0 2 3 3 2 3 3 3 3 4 4 4 5 5 5 6 6 6 6 6 6 6 7 6 8 8 9 4 3 3 3 2 3 3 4 4 4 1 1 2 3 3 3 2 3 5 1
1 0 1 0 1 1 2 2 3 6 3 6 6 8 3 1 4 6 5 4 8 10 10 10 9 9 9 9 9 9 7 6 6 7 6 6 5 5 5 5 6 4 5 3 4 3 3 3 3 0 0 2 2 3 2 2 2 3 3 4 4 5 4 5 4 6 5 5 5 6 5 6 6 6 6 7 9 3 2 1 1 2 3 4 4 4 3 2 2 4 4 4 4 2 3 3 1
3 0 2 2 2 3 3 3 4 3 4 7 5 10 5 3 9 11 10 10 10 9 7 7 8 8 8 8 8 7 6 5 4 4 4 4 4 5 5 5 7 5 4 4 3 4 2 4 2 1 0 1 1 1 1 2 1 2 2 3 4 5 5 5 6 5 5 5 5 6 6 6 6 6 6 6 6 7 0 0 1 3 3 3 4 3 3 3 5 5 4 3 4 5 4 3 2
1 1 2 3 3 1 2 3 3 1 4 0 3 3 2 5 1 5 6 2 10 12 12 12 12 10 7 5 4 3 3 2 3 3 2 2 2 4 5 5 6 5 4 4 4 2 3 3 3 1 0 0 0 0 1 1 1 2 2 4 4 4 5 5 5 5 5 5 6 5 5 6 6 7 7 6 6 8 7 3 3 3 4 4 4 4 4 4 3 2 2 4 4 5 5 4 3
1 2 2 1 2 2 2 3 1 4 4 1 2 2 3 6 2 6 7 7 9 8 9 11 11 9 7 6 5 4 3 3 3 2 3 3 4 4 6 5 6 5 5 5 4 4 3 3 2 2 1 0 0 0 0 0 1 2 3 4 4 4 5 4 4 5 5 6 5 5 6 6 6 6 6 6 6 8 7 8 6 4 4 5 4 3 4 4 4 3 3 4 5 5 5 4 4
2 2 2 2 3 3 3 3 3 2 2 1 3 4 0 2 2 1 6 6 8 8 8 8 9 10 8 7 5 5 4 4 3 4 4 4 4 4 6 5 5 5 5 5 5 4 4 3 3 2 2 1 1 1 1 1 1 2 3 3 4 4 3 3 4 4 6 4 5 4 5 5 5 5 5 5 6 6 6 5 7 8 6 5 5 5 4 4 4 4 4 4 5 5 4 5 5
4 0 1 1 1 1 1 2 1 1 1 0 2 1 3 4 1 3 4 4 5 6 8 7 7 7 6 5 5 5 4 4 4 4 4 4 4 5 5 6 5 6 6 5 5 5 4 4 3 3 3 1 0 1 0 1 2 3 3 3 4 3 3 3 3 4 4 4 4 4 5 5 5 4 5 5 4 5 5 6 6 6 6 7 7 6 6 5 4 4 4 5 6 7 7 6 5
2 1 4 1 2 2 2 1 1 1 1 0 1 2 2 1 0 2 3 4 5 5 6 7 7 6 5 5 5 5 5 5 5 5 5 5 5 5 5 5 5 5 6 5 5 5 4 4 4 3 3 1 1 0 0 1 2 3 3 4 4 3 3 3 3 3 4 4 4 4 4 5 4 4 4 4 5 4 5 5 5 5 5 6 6 7 6 6 6 6 6 6 7 6 7 7 5
1 2 1 0 1 0 2 1 1 1 1 5 3 2 2 1 1 2 3 4 4 3 4 5 6 6 5 6 6 6 6 6 6 6 5 6 5 5 6 6 5 5 5 6 6 5 5 4 4 4 2 1 1 1 0 2 3 2 3 4 3 3 3 2 3 4 4 4 3 3 4 5 5 4 5 5 5 5 6 6 5 5 5 4 4 6 7 7 7 7 7 8 8 6 6 6 5
1 0 0 2 1 0 1 2 0 1 3 5 6 6 2 3 3 7 5 7 8 7 8 7 7 8 8 8 7 8 8 8 7 7 6 6 6 7 6 6 6 7 6 6 6 5 4 4 4 3 2 2 1 1 2 2 3 3 3 4 4 3 1 2 3 4 4 3 3 3 4 5 4 5 5 6 6 7 7 7 7 7 7 6 6 4 5 7 7 7 8 7 7 6 7 7 5
0 1 2 2 2 1 1 2 2 2 4 3 1 4 3 8 4 5 10 12 13 12 10 9 10 11 10 9 9 8 8 7 7 7 7 7 7 7 7 7 6 6 6 6 5 5 4 4 4 4 3 3 2 2 3 3 3 3 3 3 4 2 1 2 3 4 4 3 3 3 4 3 4 4 5 6 7 7 7 7 7 8 8 8 7 6 5 6 6 7 8 7 6 6 6 7 6
1 0 0 1 2 2 1 0 1 1 4 3 3 4 3 5 5 16 16 16 13 13 12 14 13 12 10 9 9 10 9 8 8 7 7 7 7 8 8 8 7 7 6 5 5 4 5 5 4 3 3 3 3 3 3 3 3 3 4 4 3 3 2 2 3 4 4 3 3 3 4 3 3 3 4 5 5 6 7 7 7 8 9 9 9 9 8 7 7 6 7 7 7 6 7 7 6
1 0 1 1 0 1 0 3 2 2 1 2 2 5 4 2 1 13 13 15 16 17 17 14 13 12 12 10 10 9 9 9 9 8 8 8 8 7 7 7 7 5 5 5 5 6 5 5 4 3 4 4 3 3 3 3 2 3 4 4 4 3 4 4 4 4 4 3 3 3 3 3 3 4 4 4 4 5 5 7 8 8 9 9 10 10 9 9 8 7 7 8 8 8 7 6 5
1 1 1 1 3 0 1 4 2 1 0 3 1 6 6 1 1 8 11 13 15 15 15 14 13 13 12 11 10 10 9 9 9 9 8 8 8 7 7 7 6 6 6 6 5 5 5 5 4 4 4 3 3 3 2 2 2 3 4 4 4 4 3 3 4 4 4 3 3 3 3 3 3 4 4 4 5 4 4 5 6 8 8 9 10 10 10 9 10 10 10 7 8 6 4 4 4
Wind_Direction
297 293 288 269 260 268 282 211 253 189 234 250 265 256 124 123 118 126 105 146 87 44 56 49 48 38 61 103 109 93 35 76 11 268 88 89 271 33 348 339 337 12 14 16 49 37 20 10 15 18 19 19 22 23 16 17 17 16 13 12 8 6 1 355 353 346 343 339 339 336 337 338 338 339 338 334 330 320 305 294 300 312 324 331 325 336 338 335 329 330 342 342 337 336 339 334 350
302 311 300 281 256 270 241 171 258 251 202 252 253 250 119 91 185 120 125 93 87 109 92 83 80 88 100 117 132 114 49 34 41 72 109 347 251 37 339 339 331 16 14 14 54 40 18 12 10 13 21 22 22 24 17 19 16 18 15 13 9 9 360 355 350 344 339 338 335 333 333 333 333 333 334 335 332 329 322 309 301 308 324 345 351 5 0 354 346 357 0 8 7 7 3 356 345
301 304 297 275 226 232 304 230 245 251 234 231 37 47 173 110 145 87 83 101 106 101 96 89 80 73 133 126 40 15 110 40 20 18 83 19 35 338 332 336 341 18 16 18 54 43 22 14 13 14 18 23 24 24 19 18 18 18 17 14 11 6 1 358 350 344 339 332 329 328 331 331 329 329 329 331 332 331 328 321 307 306 332 19 37 40 35 35 30 27 24 27 25 22 17 10 5
278 270 273 300 276 195 242 220 240 266 275 298 199 13 249 37 68 91 94 96 107 114 123 95 46 352 91 65 94 76 76 68 41 4 56 28 5 316 329 334 354 17 17 25 49 42 24 15 16 23 20 23 24 22 21 21 16 18 19 14 12 8 4 3 352 346 341 335 328 329 329 327 329 326 326 329 329 330 327 325 324 324 358 38 45 46 44 47 50 41 31 34 36 35 30 35 38
261 263 254 267 295 256 252 242 249 243 254 265 341 235 62 96 95 98 108 117 118 121 85 116 89 45 73 71 353 40 60 117 65 45 33 37 340 326 335 345 12 19 18 31 48 42 22 20 19 24 24 24 24 23 23 22 20 19 19 16 14 10 11 7 5 6 1 353 345 340 334 330 331 334 333 333 332 326 328 330 352 318 343 58 56 54 47 48 53 47 44 38 41 42 46 48 48
274 250 231 234 245 27 301 265 228 244 247 258 154 65 89 95 112 114 116 104 83 74 90 67 112 132 45 34 16 91 346 122 66 66 6 355 330 338 3 5 21 23 19 31 47 53 26 23 25 27 27 26 25 25 24 24 23 23 23 20 17 17 17 14 14 20 18 15 10 358 350 345 338 336 332 330 334 343 356 58 78 70 47 48 49 49 52 58 57 53 52 52 53 54 55 56 49
302 321 227 198 246 216 255 253 257 236 17 319 329 148 130 123 120 122 116 106 72 70 66 106 108 120 93 133 87 54 41 15 79 31 12 325 345 2 20 18 21 26 23 27 41 54 29 27 27 28 28 28 28 27 27 29 26 27 26 25 23 21 23 20 19 21 27 30 23 14 8 3 357 360 15 30 33 41 54 55 66 61 52 47 49 47 52 56 56 51 50 51 50 53 53 53 49
260 273 20 251 254 204 231 252 258 275 39 30 36 32 131 119 129 135 134 121 140 106 95 134 95 86 83 171 116 76 57 39 64 49 2 357 5 10 34 25 26 29 24 28 37 55 37 29 30 30 31 31 31 32 34 33 30 29 29 28 25 25 26 26 24 25 28 31 37 39 42 41 42 50 49 45 41 41 43 55 46 47 41 36 36 39 49 54 54 46 44 47 49 52 53 50 46
244 232 250 296 259 216 263 260 270 162 134 155 72 51 97 124 148 140 151 111 97 105 128 133 131 94 114 73 76 103 60 31 47 52 25 18 12 10 45 31 26 29 30 26 28 43 46 33 29 30 33 35 35 35 34 34 33 32 30 29 28 27 27 30 28 28 30 31 32 37 38 38 38 38 40 38 34 30 29 34 36 36 37 35 30 27 44 50 48 48 51 51 50 51 48 44 41
254 220 218 264 305 266 249 248 249 195 131 78 105 90 93 128 140 135 116 112 85 65 32 57 75 107 106 94 109 51 56 27 40 39 27 30 19 18 44 37 35 30 35 32 28 27 49 39 26 30 33 35 37 34 32 33 33 32 32 31 30 30 29 30 31 30 30 31 35 34 36 35 34 32 34 33 31 29 25 26 27 26 25 26 23 21 22 38 41 41 43 47 42 33 37 37 36
270 192 276 302 246 254 256 260 217 130 116 111 84 83 105 150 139 131 102 99 92 78 20 36 85 104 94 77 68 101 102 73 44 35 22 35 34 31 43 45 40 38 35 35 35 27 32 37 25 26 32 32 33 32 32 31 33 33 34 34 32 33 32 32 29 28 28 31 30 32 34 34 32 29 31 33 32 29 26 24 22 22 20 18 16 12 15 21 31 41 29 27 43 39 23 10 20
273 238 146 237 257 257 252 260 311 93 104 124 104 131 126 160 145 115 119 108 84 64 52 349 131 116 97 115 113 141 99 57 50 47 44 42 35 47 58 53 47 44 43 35 35 32 25 35 24 23 29 34 33 32 35 35 37 37 37 36 34 33 35 34 34 31 32 32 30 30 31 30 28 28 29 29 31 29 26 22 21 21 19 18 19 19 11 12 18 18 18 40 50 8 0 1 2
266 315 232 229 261 266 285 290 294 120 126 155 118 83 154 76 1 141 116 98 104 93 38 355 104 168 102 98 134 121 72 51 47 51 56 48 104 88 73 63 52 47 45 39 38 34 31 32 27 27 32 33 35 34 33 36 38 38 39 38 37 36 36 34 32 32 36 35 34 32 32 29 27 26 26 26 27 27 24 20 16 18 20 20 19 17 13 10 356 355 358 20 1 354 8 13 9
253 238 307 280 275 269 278 303 316 335 69 90 90 72 49 61 26 86 95 71 41 59 65 9 21 93 103 118 142 88 63 44 39 69 113 107 89 75 74 67 54 47 41 43 37 36 36 33 33 31 29 31 35 35 32 32 36 37 39 39 39 39 38 37 34 34 36 36 37 36 37 34 30 28 27 27 27 26 22 18 16 15 17 17 17 16 13 7 4 353 347 323 335 349 7 29 35
276 317 295 275 279 296 292 285 269 260 97 106 108 101 79 31 60 51 73 98 57 19 174 40 336 241 166 189 115 65 30 25 6 105 128 122 82 71 72 66 63 55 44 43 43 37 37 34 35 32 30 28 33 36 32 26 34 38 39 40 39 41 39 37 35 34 37 36 38 37 38 37 35 33 31 30 31 28 22 20 17 16 14 15 15 16 14 14 8 356 1 347 359 34 37 40 46
243 284 284 260 261 266 254 210 224 294 116 111 108 94 77 56 33 59 22 87 109 41 41 38 21 59 73 73 86 80 50 18 138 144 132 108 84 67 59 63 59 59 53 40 43 44 37 36 35 34 33 32 34 35 31 30 32 36 39 37 36 40 38 37 35 33 33 34 35 32 34 35 35 32 31 30 28 28 25 23 20 19 17 15 14 16 14 14 11 9 360 347 5 53 57 51 39
287 278 267 233 255 248 262 253 197 170 103 109 130 115 100 80 70 70 73 79 84 63 67 44 68 61 67 79 93 77 87 109 148 137 140 104 92 65 54 56 49 53 49 42 42 37 41 40 36 36 37 35 35 33 31 28 33 38 34 37 37 42 40 38 36 34 28 28 32 32 33 30 30 28 21 18 22 21 22 23 21 19 18 15 14 16 13 11 12 10 10 3 46 38 38 37 26
180 232 238 252 252 261 2 5 52 133 132 141 164 108 109 114 114 118 90 74 86 86 77 80 75 73 78 89 84 85 74 71 73 83 78 71 72 79 64 49 54 51 43 40 35 37 40 42 41 37 32 32 36 37 33 30 25 32 35 34 35 38 37 36 33 33 30 31 32 33 30 29 28 29 26 24 26 21 21 23 22 21 19 16 15 14 14 12 11 13 11 10 10 7 353 341 359
231 255 246 269 283 46 353 27 51 354 126 151 126 125 111 124 134 150 102 111 98 86 85 91 84 81 82 79 81 75 77 77 77 78 80 80 79 85 76 65 58 53 47 36 33 35 30 39 41 38 33 31 37 37 33 29 30 30 34 37 35 34 35 35 37 35 34 32 31 33 33 30 28 26 23 20 24 25 23 21 20 20 19 17 15 13 11 12 13 10 12 10 9 2 352 344 351
220 268 265 258 291 74 41 56 59 41 121 99 81 89 103 129 130 132 114 98 81 87 112 89 87 91 88 88 83 82 78 79 78 79 81 80 78 75 78 75 68 59 55 40 33 34 32 31 39 37 31 29 36 33 33 33 34 32 35 35 35 33 33 34 35 36 33 28 28 29 32 30 30 26 21 22 21 22 19 18 19 20 17 15 14 13 12 11 10 12 10 10 10 0 353 355 348
148 208 242 270 37 327 78 66 48 32 111 101 100 90 75 39 14 138 112 88 80 64 51 103 107 108 104 99 96 90 87 83 82 84 90 87 82 76 76 69 65 64 57 45 38 35 33 31 26 31 35 30 33 35 33 32 35 38 33 32 32 34 34 33 34 36 33 28 27 27 26 28 27 27 25 24 25 20 19 17 14 16 11 14 12 14 10 6 10 6 7 9 5 0 357 354 351
348 296 298 313 357 303 70 66 28 9 91 114 124 100 107 105 38 33 158 121 108 101 90 86 101 105 109 106 98 97 92 88 84 80 79 81 83 88 89 83 74 66 50 52 40 34 30 34 29 26 31 33 33 37 36 32 30 36 35 27 35 36 33 34 34 34 32 27 23 21 25 29 28 26 25 25 26 24 22 20 17 13 8 9 11 10 9 8 8 5 5 6 1 358 355 351 354
239 248 255 266 4 345 82 73 9 345 135 129 105 99 84 82 75 52 61 78 97 91 98 99 95 99 104 105 102 97 95 91 89 87 85 82 81 77 74 68 66 56 49 54 49 36 32 32 30 29 32 33 35 30 34 33 35 29 26 28 33 35 34 36 38 33 30 26 22 19 22 23 23 21 20 21 24 22 23 18 16 11 9 9 7 8 7 8 4 2 3 359 356 357 357 353 352
295 267 317 42 18 69 63 85 44 52 76 93 108 114 110 119 84 71 80 85 89 100 108 105 111 108 104 103 101 97 95 94 91 87 82 80 81 76 72 75 70 62 60 54 44 45 32 34 31 32 38 34 35 32 32 35 27 30 24 26 31 30 30 37 39 39 31 29 25 23 20 23 21 21 17 17 16 16 20 16 15 15 13 9 2 7 6 3 2 2 359 355 356 356 355 356 351
238 260 275 86 89 105 97 93 87 91 90 99 93 83 73 89 109 94 86 103 112 107 113 120 111 110 107 105 105 103 100 97 93 93 89 86 84 83 79 74 71 68 62 55 44 42 38 35 36 32 35 42 32 28 39 28 30 28 30 25 29 24 32 30 32 37 35 28 24 25 21 21 23 22 19 14 11 17 14 13 13 12 5 6 2 7 8 1 358 356 357 354 356 354 348 352 350
202 240 272 152 137 118 120 111 107 101 104 101 84 90 96 105 93 69 102 109 120 128 120 120 119 112 112 111 108 105 102 100 99 93 91 89 84 85 77 68 69 66 65 60 55 42 41 37 36 37 34 37 37 31 30 34 27 30 27 24 22 25 29 27 23 32 42 31 23 18 21 20 22 21 14 6 12 14 13 12 12 9 4 353 355 360 5 2 356 354 353 352 350 351 347 344 346
335 328 269 214 153 141 155 133 127 125 123 119 107 123 130 161 250 131 125 131 140 137 131 126 122 116 115 112 111 111 110 107 106 102 95 90 90 87 83 75 67 66 58 59 50 46 43 38 41 39 31 31 38 41 31 32 29 33 27 19 14 28 25 23 26 23 32 40 27 16 18 16 18 14 8 2 2 9 7 12 11 7 2 355 344 347 349 0 351 352 352 348 344 343 341 338 343
314 327 355 260 137 186 176 144 143 135 135 123 117 119 146 154 35 117 151 154 153 141 137 137 127 124 118 117 110 108 107 108 107 109 102 93 79 81 89 88 77 66 63 58 48 46 40 44 41 44 37 27 36 44 43 34 30 29 30 17 11 20 23 24 23 23 20 29 33 18 14 17 13 11 5 357 4 2 4 5 4 10 0 347 343 349 344 342 345 343 344 342 336 335 333 334 337
236 197 228 209 194 206 193 175 157 158 134 131 123 113 134 61 115 129 144 158 153 145 140 138 135 130 125 120 124 118 113 106 91 91 90 87 89 79 82 88 97 83 68 69 61 47 45 43 46 42 47 36 35 37 47 44 38 29 29 26 8 15 21 23 24 17 19 19 32 22 11 11 12 7 2 352 356 2 357 5 3 14 352 336 330 340 342 338 351 350 340 336 333 336 334 339 338
222 230 238 233 203 225 198 177 168 189 150 146 160 227 136 95 118 139 151 158 156 145 142 143 137 134 137 131 119 115 112 110 106 102 104 104 100 94 92 81 75 73 73 77 65 57 44 36 60 48 51 48 36 35 37 51 49 54 31 35 17 9 24 32 22 21 21 19 23 29 7 10 10 2 359 349 347 358 352 4 359 6 351 332 328 339 344 346 0 353 344 343 339 342 339 334 336
198 227 213 234 218 231 183 189 161 192 144 165 180 239 124 132 146 146 167 163 160 151 148 148 147 141 133 137 129 127 117 109 120 118 115 114 102 98 97 86 98 109 94 71 79 73 53 39 37 44 39 55 43 36 37 24 49 57 64 30 28 17 20 28 26 17 26 21 23 26 6 4 10 3 352 352 342 349 349 355 359 1 345 332 339 339 346 351 4 354 343 342 339 337 333 329 327
231 199 229 227 228 18 151 183 170 176 169 189 156 258 133 158 152 167 168 171 167 152 155 151 150 147 143 138 137 123 122 122 124 119 119 117 109 102 96 92 81 87 105 112 105 96 76 54 14 38 23 44 42 21 45 39 11 89 112 79 61 55 29 28 18 21 22 32 29 24 7 347 23 356 349 346 343 342 343 350 348 353 342 336 338 338 354 356 2 353 345 340 339 335 335 334 329
213 212 225 205 214 174 181 190 194 171 153 195 204 154 113 146 161 165 184 176 172 158 156 155 155 154 149 150 144 137 133 133 132 136 130 117 129 124 111 109 94 83 70 61 69 83 89 74 42 18 26 13 33 29 14 18 16 13 26 105 81 108 95 55 12 14 9 61 42 25 4 333 32 349 347 340 340 337 337 339 347 348 345 336 343 338 353 1 1 351 343 340 333 328 331 329 326
215 197 230 251 205 163 203 156 203 157 153 184 215 213 67 127 150 168 182 194 169 164 162 158 159 157 157 152 146 148 150 152 151 152 149 139 133 130 112 127 130 111 93 73 26 71 86 89 101 43 10 356 33 46 20 16 10 10 4 356 17 28 46 63 93 0 358 68 59 8 358 313 40 340 343 337 333 330 332 326 344 344 345 342 340 343 346 6 353 352 344 336 332 328 332 325 327
233 182 232 243 251 194 154 153 174 154 168 177 184 94 126 129 151 162 183 196 182 168 163 165 159 168 161 158 152 162 160 160 160 155 154 137 144 129 150 145 124 125 114 129 37 38 44 101 78 61 12 26 23 23 24 11 25 10 358 340 9 359 0 28 352 260 87 15 87 334 304 311 8 332 339 329 336 329 327 326 341 334 351 341 342 342 344 6 350 353 347 334 332 331 331 319 337
336 350 204 273 271 240 142 154 141 161 179 206 177 147 138 157 154 166 178 199 189 169 164 164 172 169 169 163 167 169 164 165 153 156 145 146 162 156 147 167 156 187 170 94 189 18 38 38 61 63 52 40 40 25 10 2 12 13 357 343 4 344 353 337 328 338 330 240 124 251 299 283 331 305 299 335 331 328 320 328 332 332 352 344 347 341 338 2 355 353 348 341 331 339 330 321 353
321 284 283 269 290 75 102 120 152 158 156 227 156 119 142 155 165 167 173 183 208 171 174 174 178 175 173 178 171 175 172 166 144 149 159 171 158 160 169 156 188 165 217 165 210 174 100 10 15 38 49 22 66 35 9 359 0 358 353 347 345 334 329 324 320 321 317 305 124 268 277 267 251 273 280 349 327 321 322 324 332 326 352 347 345 329 324 358 0 4 339 346 336 342 333 335 342
313 298 291 287 269 161 129 132 146 260 157 99 111 124 137 157 161 168 168 184 206 181 176 181 181 177 181 179 176 177 175 130 140 154 175 166 165 177 184 188 203 195 195 177 195 152 143 215 145 20 50 40 37 78 25 359 352 353 317 291 290 298 307 303 300 298 296 264 272 253 242 268 257 263 253 321 316 316 314 317 324 319 336 341 330 311 328 354 9 2 354 346 336 345 329 342 337
291 267 275 275 298 83 63 90 159 166 87 142 128 125 144 149 167 166 180 188 201 188 181 180 182 180 182 185 178 173 167 147 162 172 181 175 182 185 182 200 212 213 186 175 175 200 200 202 134 90 354 47 35 87 56 345 343 333 319 305 339 325 316 320 320 305 279 242 270 286 266 244 249 269 266 262 284 279 287 316 309 317 319 323 334 319 327 352 8 2 358 348 331 340 319 340 338
260 237 235 255 151 154 181 227 177 202 161 135 156 116 140 146 155 174 183 188 198 185 180 183 180 185 188 184 180 177 179 162 176 184 185 182 188 184 197 210 210 183 206 198 200 196 176 170 114 102 25 5 20 100 92 15 325 306 305 335 341 332 317 313 310 313 324 343 304 252 231 214 210 230 260 217 234 253 248 274 290 315 313 305 310 326 312 333 6 2 353 343 338 341 345 329 342
217 240 261 268 164 296 60 165 163 45 12 284 136 112 125 174 166 178 179 196 185 175 175 183 179 183 186 179 179 179 189 171 179 187 188 189 187 190 197 205 204 195 197 222 198 168 146 119 77 82 41 347 36 60 43 7 333 320 327 343 330 316 318 317 322 322 338 322 309 320 325 292 198 215 223 220 209 227 239 222 287 289 296 300 298 317 317 309 351 30 344 354 345 321 344 320 333
261 207 261 298 26 108 95 119 135 132 244 215 172 218 226 161 182 175 169 175 178 167 171 189 195 198 187 183 185 179 191 180 180 191 194 189 193 189 193 196 202 199 207 215 181 123 89 57 65 46 15 35 48 54 34 10 335 343 346 345 330 326 321 336 333 332 326 325 319 319 311 306 291 239 222 217 204 205 213 214 203 255 280 295 301 288 299 347 315 41 317 18 322 318 332 351 317
288 320 337 358 25 105 131 155 142 194 216 191 200 193 275 159 193 178 166 176 187 174 188 195 193 193 192 210 193 186 189 192 188 192 190 189 192 189 193 193 192 202 217 107 89 99 88 83 74 80 39 57 28 53 24 357 9 339 349 325 313 323 328 315 327 321 318 316 317 313 309 312 309 301 289 218 211 205 204 191 205 223 261 277 278 305 296 294 300 327 306 0 286 312 325 4 314
262 317 338 305 98 144 161 172 211 290 84 97 183 193 293 213 202 150 164 174 185 183 191 197 190 188 193 193 207 200 191 198 197 200 200 192 186 189 194 187 193 190 109 110 101 102 124 110 93 76 29 67 62 66 21 17 0 342 332 318 325 329 324 318 325 322 317 314 315 315 321 321 319 320 317 309 217 206 192 194 199 212 240 255 269 267 261 258 41 319 319 297 306 324 310 303 273
138 220 346 10 1 0 292 184 227 248 261 206 211 215 127 255 73 137 162 179 179 195 192 189 187 192 189 193 198 201 202 198 197 199 207 198 189 181 183 192 167 116 131 124 143 118 125 118 110 100 30 77 47 46 34 3 357 341 339 326 342 327 320 313 314 314 310 308 316 322 322 319 318 320 328 328 325 210 184 189 210 211 232 263 260 258 270 228 199 253 281 289 293 320 309 277 83
140 165 292 25 276 207 251 233 238 261 224 255 182 197 208 216 177 163 187 193 195 197 183 182 188 185 189 188 192 194 195 194 195 195 192 202 189 179 181 181 110 128 115 131 118 134 124 128 129 114 58 76 51 36 18 356 351 6 342 332 324 309 308 304 312 305 306 320 320 320 320 319 321 332 330 336 337 308 193 193 213 224 248 265 270 260 275 312 274 255 239 234 254 237 274 278 221
129 155 211 223 210 212 211 215 253 258 260 252 231 183 195 261 186 188 176 204 191 161 166 169 175 180 184 182 181 179 177 178 182 184 184 183 182 178 177 138 129 122 133 133 145 138 149 126 145 125 96 81 59 23 17 347 10 344 314 308 309 307 311 315 308 308 318 330 326 322 322 324 329 322 329 333 330 347 312 273 245 264 258 256 265 271 264 241 241 233 234 239 237 235 248 265 291
217 201 224 218 232 147 212 239 161 233 260 44 4 90 176 213 219 196 205 138 158 165 167 167 169 169 157 131 125 131 128 151 147 153 187 189 196 170 122 134 130 144 138 150 140 151 135 148 137 143 82 73 78 228 35 287 347 303 309 313 316 315 319 308 307 317 330 328 319 315 325 340 334 337 333 331 341 347 352 324 291 297 289 283 282 277 271 265 261 280 292 274 258 237 221 226 237
180 256 254 219 252 111 251 143 263 205 233 84 11 340 346 237 317 181 179 163 154 158 161 158 153 149 144 145 142 143 139 134 134 155 170 187 191 182 141 157 142 156 159 161 169 154 168 156 163 151 235 156 199 226 227 291 326 322 320 317 319 316 298 306 334 339 324 314 309 330 343 333 331 334 325 337 336 352 336 333 338 335 329 309 289 271 264 280 292 289 283 286 275 267 253 233 224
238 187 220 178 256 234 235 207 186 184 72 342 45 8 249 52 318 92 141 150 146 140 143 148 154 149 146 145 145 140 151 155 175 173 180 187 189 177 156 164 154 164 165 164 167 159 163 173 185 152 217 190 207 209 216 7 323 311 313 307 305 292 296 343 338 323 304 299 328 339 321 316 320 318 326 329 329 330 328 323 326 329 332 326 313 303 300 290 286 274 263 265 276 268 245 239 226
231 50 14 291 10 301 289 307 287 5 107 96 246 72 229 170 250 42 70 60 98 131 141 142 135 136 141 141 143 149 160 179 170 174 187 191 193 173 162 164 166 171 172 166 168 166 175 176 183 188 201 230 215 239 53 345 320 304 291 311 283 278 322 318 298 285 292 321 326 314 304 299 306 301 315 303 312 320 324 320 326 329 325 326 323 314 308 307 292 282 271 265 267 267 256 244 226
232 81 45 33 249 3 220 21 7 318 323 109 219 193 350 39 348 40 52 71 60 81 105 116 128 128 129 137 163 175 176 186 181 191 191 190 181 174 163 167 172 169 168 168 171 171 169 187 186 198 198 219 230 324 338 293 286 280 289 286 277 292 290 290 291 300 308 305 299 308 302 307 300 311 304 320 317 310 307 308 301 301 302 304 306 302 297 291 285 279 272 266 263 261 256 246 233
349 25 244 231 314 331 323 284 152 49 113 262 165 215 91 125 279 164 141 118 138 139 137 138 152 153 152 177 185 188 190 189 186 195 193 184 175 181 175 173 173 169 168 176 182 174 176 185 189 208 218 214 237 259 245 279 272 276 286 269 279 291 284 294 289 285 291 294 308 308 316 309 317 320 328 319 310 315 307 301 297 290 289 279 286 293 296 293 291 281 273 265 264 265 274 252 234
6 285 148 248 244 72 116 260 254 162 219 270 149 207 164 160 270 148 174 183 180 179 184 174 176 172 179 195 193 192 190 192 191 194 191 189 183 185 183 181 176 175 176 178 181 174 173 185 192 204 210 224 251 230 266 271 263 268 263 267 257 251 244 278 285 288 290 297 303 321 322 320 325 330 325 322 322 314 307 303 307 307 300 294 281 282 285 288 289 285 279 275 271 276 277 279 265
164 211 215 45 286 13 242 94 301 287 278 266 248 227 217 183 204 147 201 195 193 188 188 185 189 186 194 196 195 192 188 186 193 195 193 193 188 189 187 185 178 176 174 172 175 170 175 187 197 188 204 224 215 223 236 245 252 249 248 251 260 265 264 268 281 282 281 290 308 318 305 308 328 329 332 322 313 312 317 319 319 316 311 308 302 287 280 277 278 280 278 274 271 269 270 274 268
185 338 26 112 107 222 303 228 209 60 248 326 285 93 268 195 205 184 195 197 190 185 191 201 196 191 193 194 194 188 187 190 193 195 196 194 192 189 188 180 180 178 172 174 176 176 185 203 196 202 215 207 221 238 237 250 256 258 267 273 274 263 247 248 271 271 275 282 295 291 287 306 304 321 306 305 317 322 325 325 325 325 323 318 315 308 295 282 273 271 276 272 271 269 271 276 285
218 178 169 74 76 288 128 274 189 230 271 270 276 295 263 281 172 173 196 188 189 187 196 197 196 196 194 195 191 187 188 191 193 195 196 197 197 195 188 176 171 169 172 176 179 187 199 198 195 209 212 229 244 243 237 240 248 269 271 268 266 277 268 253 246 262 269 271 276 288 305 306 321 309 303 305 315 321 327 336 332 326 320 315 312 313 315 312 297 279 269 271 267 263 265 273 287
53 22 214 195 146 214 89 282 54 346 165 249 241 262 271 234 188 190 185 189 187 194 192 194 196 195 193 195 190 185 190 193 194 195 193 196 193 190 175 161 158 167 178 182 191 195 200 196 201 207 212 218 222 237 230 237 264 264 264 265 273 273 285 291 300 294 288 289 291 297 295 314 306 299 311 318 321 319 330 327 327 319 318 317 315 315 317 314 312 305 296 278 273 281 289 293 302